Other Surface Observations
Issued by NWS Tucson, AZ

Home | Current Version | Previous Version | Text Only | Print | Product List | Glossary On
Versions: 1 2 3 4 5 6 7 8 9 10 11 12 13 14 15 16 17 18 19 20 21 22 23 24 25 26 27 28 29 30 31 32 33 34 35 36 37 38 39 40 41 42 43 44 45 46 47 48 49 50
478
SXUS55 KTWC 262315
OSOTWC

WEATHER ROUNDUP FOR SOUTHEAST ARIZONA
NATIONAL WEATHER SERVICE TUCSON AZ
415 PM MST FRI MAY 26 2017

AZZ504>506-514-270015-
LOCATION       SKY/WX    TMP DP  RH WIND       PRES   REMARKS
TUCSON         SUNNY     94  21   7 SW20G31   29.88F
DAVIS-MONTHAN  SUNNY     93  17   6 W15G25    29.87F
CHILDRENS PARK N/A      N/A N/A   7 SW11              PIMA CO DEQ
ALVERNON/22ND  N/A       93 N/A N/A W14               PIMA CO DEQ
CHERRY/GLENN   N/A      N/A N/A N/A N/A               PIMA CO DEQ
TANGERINE      N/A       93 N/A N/A W11               PIMA CO DEQ
CONTL RANCH    N/A       95  21   7 W11               PIMA CO DEQ
GRANT/1ST      N/A       93  20   7 SW13              PIMA CO DEQ
CRAYCROFT/22ND N/A       93  23   8 W15               PIMA CO DEQ
GOLFLINKS/KOLB N/A      N/A N/A N/A N/A               PIMA CO DEQ
AJO/12TH       N/A       94  24   8 SW14              PIMA CO DEQ
FAIRGROUNDS    N/A       91 N/A N/A SW18              PIMA CO DEQ
SAGUARO        N/A       95  18   6 W10G22            *SABINO CYN
SAN CARLOS     N/A       91  18   7 SW15G23           *SAN CARLOS
GREEN VALLEY   N/A       93  23   8 SW18              PIMA CO DEQ
HORSE CAMP CYN N/A       87  21   9 SW19G31           *ARAVAIPA CYN
RINCON MTNS    NOT AVBL
$$

AZZ509>511-270015-
LOCATION       SKY/WX    TMP DP  RH WIND       PRES   REMARKS
SAFFORD        SUNNY     92  15   6 SW9G26    29.84S
STRAY HORSE    N/A       67  13  12 N/A               *
TRAIL CABIN    N/A       78  17  10 SW10G19           *N OF GRANVILLE
BLACK HILLS    NOT AVBL
DRY LAKE       N/A       73  19  13 W8G17             *NATANES MTNS
NOON CREEK     N/A       85  17   8 W6G19             *PINALENO MTNS
COLUMBINE      N/A       61  17  18 SW10G25           *PINALENO MTNS
GUTHRIE        N/A       80  16   9 SW14G24           *SW OF GUTHRIE
$$

AZZ502-503-513-270015-
LOCATION       SKY/WX    TMP DP  RH WIND       PRES   REMARKS
NOGALES        SUNNY     89  15   6 SW22G35   29.97F
SELLS          N/A       91  33  13 N13G26            *
SASABE         N/A       89  28  11 SW16G29           *ALTAR VLY
HOPKINS        N/A       77  11   8 W12G26            *SANTA RITA MTNS
CARR CYN       N/A       83  25  12 SW4G15            *W OF HEREFORD
$$

AZZ507-508-512-270015-
LOCATION       SKY/WX    TMP DP  RH WIND       PRES   REMARKS
SIERRA VISTA   SUNNY     85  17   8 SW20G28   30.02S
DOUGLAS        SUNNY     89  22   8 SW26G38   29.97F
EMPIRE MTNS    NOT AVBL
MULESHOE RANCH N/A       85  20   9 W17G30            *PRESERVE
HEADQUARTERS   NOT AVBL
$$

.............................NOTES.............................
THIS IS AN AUTOMATED COLLECTIVE WITH MINIMAL QUALITY CONTROL.
PIMA CO DEQ SITES HAVE NONSTANDARD WIND SENSOR HEIGHTS.
PIMA CO DEQ SITES DO NOT REPORT WIND GUSTS.
* INDICATES WIND SENSORS LOCATED AT 20 FEET INSTEAD OF 33 FEET.
..............................KEY..............................
SKY/WX - SKY CONDITION/WEATHER
TMP    - TEMPERATURE IN FAHRENHEIT
DP     - DEWPOINT IN FAHRENHEIT
RH     - RELATIVE HUMIDITY IN PERCENT
WIND   - DIRECTION AND SPEED IN MILES PER HOUR (MPH)
VRB    - VARIABLE WIND DIRECTION
PRES   - MEAN SEA LEVEL PRESSURE IN INCHES OF MERCURY
         F - FALLING PRESSURE   R - RISING PRESSURE
         S - STEADY PRESSURE
VSB    - VISIBILITY IN MILES
HX     - HEAT INDEX IN FAHRENHEIT
WCI    - WIND CHILL INDEX IN FAHRENHEIT
N/A    - NOT AVAILABLE
AFB    - AIR FORCE BASE
         DAVIS-MONTHAN IS DAVIS-MONTHAN AIR FORCE BASE
CYN    - CANYON
MTNS   - MOUNTAINS
NCA    - NATIONAL CONSERVATION AREA
NR     - NEAR
VLY    - VALLEY
CONTL  - CONTINENTAL
PIMA CO DEQ - PIMA COUNTY DEPT OF ENVIRONMENTAL QUALITY



USA.gov is the U.S. government's official web portal to all federal, state and local government web resources and services.